"Pseudo-MPEC" for C0J9ZG5

Created 2023 Sep 21 1:22:03 UT using Find_Orb

Click here for an explanation of pseudo-MPECs

 
 Astrometry: 
     C0J9ZG5* C2023 09 19.27292022 53 13.751+35 30 16.45   ~9J7M 21.57GVNEOCPV00
     C0J9ZG5  C2023 09 19.27842722 53 13.398+35 29 45.02   ~9J7M 21.39GVNEOCPV00
     C0J9ZG5  C2023 09 19.28392622 53 13.052+35 29 13.67   ~9J7M 21.55GVNEOCPV00
     C0J9ZG5  C2023 09 19.28945222 53 12.678+35 28 41.63   ~9J7M       VNEOCPV00
     C0J9ZG5 KC2023 09 19.37963522 53 07.084+35 19 53.80   ~9J9b 21.42GVNEOCPV06
     C0J9ZG5 KC2023 09 19.38170122 53 06.972+35 19 41.52   ~9J9b 21.19GVNEOCPV06
     C0J9ZG5 KC2023 09 19.38376422 53 06.860+35 19 29.35   ~9J9b 21.43GVNEOCPV06
     C0J9ZG5 KC2023 09 19.38582622 53 06.756+35 19 17.15   ~9J9b 21.44GVNEOCPV06
     C0J9ZG5 1C2023 09 19.83168 22 53 03.19 +34 36 04.6    ~9K8b 21.2 VXNEOCP033
     C0J9ZG5 1C2023 09 19.83428 22 53 03.12 +34 35 49.4    ~9K8b 21.0 VXNEOCP033
     C0J9ZG5 1C2023 09 19.83688 22 53 02.96 +34 35 34.6    ~9K8b 21.0 VXNEOCP033
     C0J9ZG5 KC2023 09 20.14928322 52 57.688+34 05 43.84   ~9K47 21.54GVNEOCPI52
     C0J9ZG5 KC2023 09 20.15160522 52 57.544+34 05 30.44   ~9K47 21.46GVNEOCPI52
     C0J9ZG5 KC2023 09 20.15392422 52 57.414+34 05 17.41   ~9K47 21.23GVNEOCPI52
     C0J9ZG5 KC2023 09 20.15625722 52 57.259+34 05 04.52   ~9K47 21.24GVNEOCPI52
     C0J9ZG5  C2023 09 20`N?`4TAstrometryjbEopR!$(Nuh$sO0redacted;+?lfxUmuou:F52
     C0J9ZG5  C2023 09 203[(gkgO;?P@!Xoi\BFclick(^9n6Hae=6ZPKbqQ-8IX0i3h8W%5OF52
     C0J9ZG5  C2023 09 20K=ge#@C]#gg?9sMQSvherecd?w,W.eforF]kexplanationcK/((F52
     C0J9ZG5 1C2023 09 20.92123 22 52 37.58 +32 49 54.2    ~9KMq 20.8 VXNEOCP033
     C0J9ZG5 1C2023 09 20.92389 22 52 37.47 +32 49 38.5    ~9KMq 20.8 VXNEOCP033

Station data:
(033) Karl Schwarzschild Observatory, Tautenburg  (N50.980137 E11.711240)
   Germany.  Observer B. Stecklum. 1.34-m f/3 Schmidt + CCD.
(F52) Pan-STARRS 2, Haleakala  (N20.707382 W156.255910)  US/Hawaii.
   Observers J. Bulger, T. Dukes, T. Lowe, A. Schultz, M. Willman. Measurers
   K. Chambers, S. Chastel, T. de Boer, L. Denneau, J. Fairlamb, H.
   Flewelling, M. Huber, C.-C. Lin, E. Magnier, Y. Ramanjooloo, R. Wainscoat,
   R. Weryk. 1.8-m Ritchey-Chrétien + CCD.
(I52) Steward Observatory, Mt. Lemmon Station  (N32.442544 W110.788920)
   US/Arizona.  Observers T. A. Pruyne, B. M. Africano, E. J. Christensen, G.
   A. Farneth, D. C. Fuls, A. R. Gibbs, A. D. Grauer, H. Gröller, J. A.
   Johnson, R. A. Kowalski, S. M. Larson, G. J. Leonard, D. Rankin, R. L.
   Seaman, F. C. Shelly, K. W. Wierzchoś. 1.0-m prime focus + CCD.
(V00) Kitt Peak-Bok  (N31.963125 W111.600190)  US/Arizona.  Observers T. A.
   Pruyne, B. M. Africano, E. J. Christensen, G. A. Farneth, D. C. Fuls, A.
   R. Gibbs, A. D. Grauer, H. Gröller, J. A. Johnson, R. A. Kowalski, S. M.
   Larson, G. J. Leonard, D. Rankin, R. L. Seaman, F. C. Shelly, K. W.
   Wierzchoś. 2.25-m reflector + 4x4K mosaic CCD.
(V06) Catalina Sky Survey-Kuiper  (N32.416844 W110.732550)  US/Arizona.
   Observers T. A. Pruyne, B. M. Africano, E. J. Christensen, G. A. Farneth,
   D. C. Fuls, A. R. Gibbs, A. D. Grauer, H. Gröller, J. A. Johnson, R. A.
   Kowalski, S. M. Larson, G. J. Leonard, D. Rankin, R. L. Seaman, F. C.
   Shelly, K. W. Wierzchoś. 1.55-m reflector + CCD.

Orbital elements:  C0J9ZG5
   Perihelion 2023 Apr 30.39143 +/- 0.185 TT =  9:23:39 (JD 2460064.89143)
Epoch 2023 Sep 20.0 TT = JDT 2460207.5   Earth MOID: 0.0746      AutoNEOCP
M 138.28064352 +/- 0.18             (J2000 ecliptic)
n   0.96965172 +/- 0.000125         Peri.   13.06918 +/- 0.11
a   1.01094035 +/- 8.72e-5          Node   198.98661 +/- 0.038
e   0.0882197 +/- 0.000259          Incl.    8.06360 +/- 0.030
P   1.02/371.26d           H 24.94  G  0.15   U  6.7
q 0.92175540 +/- 0.000202    Q 1.10012530 +/- 0.000344
From 20 observations 2023 Sept. 19-20 (39.6 hr); mean residual 0".19
Residuals in arcseconds: 
230919 V00  .10-  .15-    230919 V06  .02+  .02+    230920 I52  .37-  .33+    
230919 V00  .01-  .02-    230919 033  .13-  .34+    230920 F52  .06-  .27-    
230919 V00  .15+  .20+    230919 033  .55+  .11-    230920 F52  .04-  .25-    
230919 V00  .02-  .05-    230919 033  .12+  .15-    230920 F52  .00   .41+    
230919 V06  .10-  .01-    230920 I52  .44+  .28+    230920 033  .04-  .01+    
230919 V06  .08-  .05-    230920 I52  .14+  .02-    230920 033  .20+  .03+    
230919 V06  .07-  .00     230920 I52  .04+  .05+    

Ephemerides (geocentric):
Date (UTC) HH   RA             Dec           delta  r     elong  mag " sig PA
---- --------  ------------   ------------  ------ ------ -----  --- --------
2023 09 21 01  22 52 35.242   +32 38 30.43  .09421 1.0816 143.7 21.4 .186 107
2023 09 21 02  22 52 34.458   +32 34 23.66  .09420 1.0816 143.7 21.4 .192 109
2023 09 21 03  22 52 33.680   +32 30 16.72  .09419 1.0817 143.8 21.4 .199 111
2023 09 21 04  22 52 32.908   +32 26 09.61  .09418 1.0817 143.8 21.4 .205 112
2023 09 21 05  22 52 32.142   +32 22 02.33  .09417 1.0817 143.9 21.4 .212 114
2023 09 21 06  22 52 31.382   +32 17 54.87  .09416 1.0818 144.0 21.4 .219 116
2023 09 21 07  22 52 30.627   +32 13 47.25  .09415 1.0818 144.0 21.4 .227 117
2023 09 21 08  22 52 29.879   +32 09 39.46  .09414 1.0818 144.1 21.4 .235 119
2023 09 21 09  22 52 29.137   +32 05 31.50  .09413 1.0819 144.2 21.4 .243 120
2023 09 21 10  22 52 28.400   +32 01 23.38  .09412 1.0819 144.2 21.4 .251 122
2023 09 21 11  22 52 27.670   +31 57 15.09  .09411 1.0819 144.3 21.4 .260 123
2023 09 21 12  22 52 26.945   +31 53 06.64  .09411 1.0820 144.3 21.4 .269 125
2023 09 21 13  22 52 26.226   +31 48 58.03  .09410 1.0820 144.4 21.4 .278 126
2023 09 21 14  22 52 25.513   +31 44 49.26  .09409 1.0820 144.5 21.4 .287 128
2023 09 21 15  22 52 24.807   +31 40 40.33  .09408 1.0821 144.5 21.4 .297 129
2023 09 21 16  22 52 24.106   +31 36 31.24  .09407 1.0821 144.6 21.4 .307 130
2023 09 21 17  22 52 23.411   +31 32 21.99  .09406 1.0821 144.7 21.4 .318 131
2023 09 21 18  22 52 22.722   +31 28 12.59  .09406 1.0822 144.7 21.4 .329 133
2023 09 21 19  22 52 22.039   +31 24 03.03  .09405 1.0822 144.8 21.3 .340 134
2023 09 21 20  22 52 21.362   +31 19 53.32  .09404 1.0823 144.8 21.3 .351 135
2023 09 21 21  22 52 20.691   +31 15 43.46  .09403 1.0823 144.9 21.3 .363 136
2023 09 21 22  22 52 20.026   +31 11 33.45  .09403 1.0823 145.0 21.3 .375 137
2023 09 21 23  22 52 19.367   +31 07 23.28  .09402 1.0824 145.0 21.3 .388 138
2023 09 22 00  22 52 18.713   +31 03 12.97  .09401 1.0824 145.1 21.3 .401 139
2023 09 22 01  22 52 18.066   +30 59 02.51  .09401 1.0824 145.1 21.3 .414 140
2023 09 22 02  22 52 17.425   +30 54 51.91  .09400 1.0825 145.2 21.3 .427 141
2023 09 22 03  22 52 16.790   +30 50 41.16  .09399 1.0825 145.3 21.3 .441 142
2023 09 22 04  22 52 16.161   +30 46 30.27  .09399 1.0825 145.3 21.3 .455 143
2023 09 22 05  22 52 15.538   +30 42 19.23  .09398 1.0826 145.4 21.3 .470 144
2023 09 22 06  22 52 14.921   +30 38 08.05  .09398 1.0826 145.4 21.3 .485 145
2023 09 22 07  22 52 14.310   +30 33 56.74  .09397 1.0826 145.5 21.3 .500 146
2023 09 22 08  22 52 13.704   +30 29 45.28  .09397 1.0827 145.6 21.3 .515 147
2023 09 22 09  22 52 13.105   +30 25 33.69  .09396 1.0827 145.6 21.3 .531 147
2023 09 22 10  22 52 12.512   +30 21 21.97  .09396 1.0827 145.7 21.3 .548 148
2023 09 22 11  22 52 11.925   +30 17 10.10  .09395 1.0828 145.7 21.3 .564 149
2023 09 22 12  22 52 11.344   +30 12 58.11  .09395 1.0828 145.8 21.3 .581 150
2023 09 22 13  22 52 10.769   +30 08 45.98  .09394 1.0828 145.9 21.3 .598 150
2023 09 22 14  22 52 10.200   +30 04 33.72  .09394 1.0829 145.9 21.3 .616 151
2023 09 22 15  22 52 09.637   +30 00 21.34  .09393 1.0829 146.0 21.3 .634 152
2023 09 22 16  22 52 09.080   +29 56 08.82  .09393 1.0830 146.0 21.3 .652 152
2023 09 22 17  22 52 08.529   +29 51 56.18  .09393 1.0830 146.1 21.3 .671 153
2023 09 22 18  22 52 07.984   +29 47 43.41  .09392 1.0830 146.1 21.3 .690 154
2023 09 22 19  22 52 07.446   +29 43 30.52  .09392 1.0831 146.2 21.3 .709 154
2023 09 22 20  22 52 06.913   +29 39 17.50  .09392 1.0831 146.3 21.3 .729 155
2023 09 22 21  22 52 06.386   +29 35 04.37  .09392 1.0831 146.3 21.3 .749 155
2023 09 22 22  22 52 05.865   +29 30 51.11  .09391 1.0832 146.4 21.3 .770 156
2023 09 22 23  22 52 05.351   +29 26 37.73  .09391 1.0832 146.4 21.3 .790 156
2023 09 23 00  22 52 04.842   +29 22 24.24  .09391 1.0832 146.5 21.3 .811 157